Regional Weather Roundup
Issued by NWS Midland/Odessa, TX

Skip options and go directly to product.
Home | Oldest Version | Next Version | Current Version | All | Text Only | Save Text | Print | Product List | Glossary On

Skip product version selection by date and time.   
591
ASUS44 KMAF 170501
RWRMAF
MIDLAND AREA WEATHER ROUNDUP
NATIONAL WEATHER SERVICE MIDLAND TX
1100 PM CST MON JAN 16 2017

...IN SOUTHWEST TEXAS AND SOUTHEAST NEW MEXICO...

CITY           SKY/WX    TMP DP  RH WIND       PRES   REMARKS
ALPINE         PTCLDY    39  32  75 NW5       30.12F WCI  36
ANDREWS        FAIR      43  42  97 NE14      30.10R WCI  36
ARTESIA        PTCLDY    45  45 100 N7        30.08R
BIG SPRING     PTCLDY    48  41  79 NE17      30.12R
CARLSBAD       PTCLDY    44  39  82 N9        30.06R WCI  39
DRYDEN           N/A     55  43  63 N7        30.00F
FORT STOCKTON  CLEAR     49  39  68 SE5       30.05R
GUAD PASS      PTCLDY    43  28  55 SW6       30.10  WCI  39
HOBBS          NOT AVBL
MARFA          CLEAR     37  31  78 N3        30.08R
MIDLAND AIRPK  CLOUDY    46  41  83 NE6       30.09R
MIDLAND INTL   CLOUDY    43  38  82 NE8       30.07R WCI  38
ODESSA         CLEAR     44  37  76 NE10      30.07R WCI  39
PECOS          CLEAR     46  38  74 CALM      30.05S
PRESIDIO       FAIR      52  35  50 N8        30.00R
SEMINOLE       CLEAR     41  38  88 NE7       30.12R WCI  36
SNYDER         MOCLDY    43  37  78 N12       30.13R WCI  37
WINK           CLEAR     45  37  73 NE7       30.05R
$$
...OTHER STATIONS IN TEXAS...

CITY           SKY/WX    TMP DP  RH WIND       PRES   REMARKS
ABILENE        PTCLDY    47  42  83 VRB3      30.10R
AMARILLO       CLOUDY    37  32  82 N14       30.14R WCI  28
AUSTIN         LGT RAIN  60  56  86 NE7       30.03R
BROWNSVILLE    MOCLDY    71  69  93 SE12      29.98S
CORPUS CHRISTI CLOUDY    70  68  93 S13       29.98S
DALLAS FTW     CLOUDY    50  41  71 NE5       30.08R
DEL RIO        CLOUDY    60  43  53 NE5       29.98F
EL PASO        PTCLDY    48  38  68 E5        30.05R
HOUSTON INT    CLOUDY    73  68  84 S7        30.02R
LUBBOCK        MOCLDY    39  34  82 N17       30.12R WCI  30
SAN ANGELO     CLOUDY    48  44  86 SE6       30.06R
SAN ANTONIO    LGT RAIN  60  52  74 NE5       30.01S
WACO           CLOUDY    59  50  72 NE7       30.07R
WICHITA FALLS  NOT AVBL
$$
...OTHER LOCATIONS IN NEW MEXICO...

CITY           SKY/WX    TMP DP  RH WIND       PRES   REMARKS
ALAMAGORDO     CLEAR     41  36  81 NE8       30.07S WCI  36
ALBUQUERQUE    LGT RAIN  41  39  93 E8        30.10R WCI  36
CANNON AFB     PTCLDY    34  34 100 NE12      30.12S WCI  26
CLOVIS         CLEAR     34  28  80 N14       30.12F WCI  24
HOLLOMAN AFB   CLOUDY    41  38  88 NE9       30.09S WCI  36
ROSWELL        PTCLDY    45  38  76 N8        30.10R
RUIDOSO        CLOUDY    34  34 100 NE3       30.13S
SANTA FE       CLOUDY    35  34  96 S8        30.11R WCI  29
TRUTH OR CONSE MOCLDY    42  38  85 NW6       30.07R WCI  38
TUCUMCARI      CLOUDY    40  33  76 E6        30.15R WCI  36
$$

  • National Weather Service
  • Southern Region Headquarters
  • 819 Taylor Street, Room 10A06
  • Fort Worth, TX 76102
  • Page Author: NWS Fort Worth
  • Web Master: SR-SRH.Webmaster@noaa.gov
  •  
  • Page last modified: 30-Sep-2016 6:36 PM UTC
USA.gov is the U.S. government's official web portal to all federal, state and local government web resources and services.